[[{"header":{"parameterUnit":"m.s-1","parameterCategory":1,"la1":30.2991,"la2":30.254,"lo1":-89.0895,"lo2":-89.0444,"dy":0.0017,"dx":0.0017,"nx":28,"ny":28,"refTime":"2023-08-02T03:00:00:Z","depth":0,"parameterNumber":2,"parameterNumberName":"U-component_of_WINDS"},"data":[0,0,0,0,0,0,0,0,0,0,0,0,0,0,0,0,0,0,0,0,0,0,0,0,0,0,0,0,0,0,0,0,0,0,0,0,0,0,0,0,0,0,0,0,0,0,0,0,0,0,0,0,0,0,0,0,0,0,1.3081,1.3081,0,1.3119,1.3119,1.312,1.3118,1.3118,1.3117,1.3117,1.3154,1.3155,1.3157,0,0,0,0,0,0,0,0,0,0,0,0,0,1.3004,1.3005,1.3081,1.3081,1.3082,1.3119,1.3119,1.312,1.3118,1.3118,1.3117,1.3116,1.3153,1.3155,1.3157,0,0,0,0,0,0,0,0,0,0,0,0,0,1.3039,1.3006,1.3081,1.3086,1.3086,1.3119,1.3119,1.312,1.3118,1.3118,1.3117,1.3116,1.3153,1.3155,1.3157,1.3186,0,0,1.3164,1.3165,0,0,0,0,0,0,0,0,1.3037,1.3042,1.3084,1.3085,1.3086,1.3113,1.3106,1.3142,1.3119,1.3106,1.3117,1.3116,1.3141,1.3144,1.3153,1.3188,1.319,1.3164,1.3165,1.3166,1.3167,0,0,0,0,0,0,0,1.3035,1.304,1.3096,1.3085,1.3086,1.3085,1.3089,1.3113,1.3127,1.3107,1.3107,1.3112,1.3141,1.315,1.3153,1.319,1.3164,1.3166,1.3167,1.3168,1.3249,1.325,0,0,0,0,0,0,1.3032,1.3038,1.3095,1.3097,1.3059,1.3087,1.3091,1.3105,1.3127,1.313,1.3113,1.3112,1.3147,1.3151,1.3155,1.3189,1.3166,1.3168,1.3169,1.3248,1.3249,1.325,0,0,0,0,0,0,1.303,1.3037,1.3093,1.3068,1.3075,1.3089,1.3104,1.3106,1.3116,1.3131,1.3133,1.312,1.3147,1.3152,1.3178,1.319,1.3169,1.3171,1.3247,1.3248,1.325,1.3258,0,0,0,0,0,0,1.3028,1.3036,1.3048,1.3068,1.3076,1.3117,1.3105,1.3108,1.312,1.3119,1.3138,1.3141,1.3146,1.3175,1.318,1.3193,1.3173,1.3246,1.3248,1.3249,1.3257,1.326,1.3262,0,0,0,0,0,1.3025,1.3049,1.3049,1.3056,1.3092,1.3117,1.3122,1.3128,1.3121,1.3132,1.3142,1.314,1.3188,1.3177,1.3184,1.3197,1.3245,1.3247,1.3249,1.3256,1.3259,1.3262,0,0,0,0,0,0,1.303,1.3052,1.3052,1.3083,1.3099,1.3117,1.3132,1.3132,1.3149,1.3148,1.3155,1.3159,1.3185,1.3194,1.3181,1.3225,1.3216,1.3219,1.3219,1.3222,1.3224,1.3221,1.3175,0,0,0,0,0,1.3035,1.3055,1.3073,1.3099,1.3106,1.3118,1.3129,1.3133,1.3149,1.3155,1.3167,1.3181,1.3199,1.3211,1.3229,1.3258,1.3261,1.327,1.3273,1.3275,1.3277,1.3291,1.3295,1.3256,1.3256,1.3256,0,0,1.3045,1.306,1.3072,1.31,1.3112,1.3131,1.3123,1.3145,1.3158,1.3158,1.3183,1.3192,1.3209,1.3236,1.3249,1.3245,1.3289,1.3277,1.3279,1.328,1.3294,1.3297,1.3301,1.3257,1.3257,1.3257,0,0,1.3073,1.3087,1.3109,1.3122,1.314,1.3147,1.3153,1.3171,1.3177,1.3203,1.3202,1.3218,1.325,1.3261,1.3271,1.3302,1.33,1.3308,1.332,1.3334,1.3337,1.334,1.3349,1.3353,1.331,1.331,1.331,0,1.3084,1.3114,1.3121,1.3142,1.3153,1.3154,1.3175,1.3187,1.321,1.3217,1.3212,1.3251,1.3262,1.3291,1.3299,1.3307,1.3312,1.3305,1.3336,1.3339,1.3342,1.3351,1.3354,1.3311,1.3311,1.3311,1.3311,0,1.3124,1.3144,1.316,1.3182,1.3196,1.3217,1.3226,1.3238,1.3241,1.3248,1.3273,1.3287,1.3306,1.3313,1.3316,1.3342,1.3339,1.3335,1.3325,1.3346,1.3354,1.3358,1.3312,1.3311,1.3311,1.3311,0,0,1.3157,1.3182,1.3187,1.3197,1.3217,1.3232,1.3252,1.3272,1.3282,1.3297,1.3313,1.3339,1.3335,1.3347,1.335,1.3362,1.3384,1.3357,1.3357,1.336,1.3412,1.3413,1.3417,1.3383,1.3384,1.3384,1.341,0,1.3186,1.3222,1.3229,1.326,1.3278,1.3279,1.3296,1.3309,1.3316,1.3332,1.3339,1.3357,1.3352,1.3358,1.337,1.3378,1.3394,1.3377,1.3397,1.3397,1.3391,1.3422,1.3425,1.3448,1.3413,1.3414,1.3414,0,1.3224,1.3241,1.3274,1.329,1.3298,1.3314,1.3331,1.3346,1.3361,1.3365,1.3377,1.3378,1.3398,1.3388,1.3414,1.3402,1.3411,1.3416,1.3417,1.3418,1.3406,1.3423,1.3456,1.3459,1.342,1.3419,1.3419,0,1.3243,1.3273,1.3297,1.3305,1.3325,1.3335,1.3344,1.3358,1.3368,1.3383,1.339,1.3407,1.3416,1.3428,1.3434,1.3426,1.3459,1.345,1.3462,1.3462,1.3468,1.3467,1.3502,1.3476,1.3476,1.3475,1.3475,0,1.3274,1.3294,1.3305,1.3319,1.3341,1.3348,1.3369,1.3377,1.3389,1.3404,1.3405,1.3419,1.3426,1.3441,1.3445,1.3465,1.347,1.3472,1.3473,1.3472,1.3471,1.3476,1.3474,1.3476,1.3476,1.3476,1.3476,0,1.3298,1.3306,1.3332,1.3348,1.3352,1.3367,1.3381,1.3394,1.3401,1.3419,1.3424,1.3434,1.3451,1.3458,1.3479,1.3482,1.3504,1.3505,1.35,1.35,1.3511,1.3509,1.3549,1.3553,1.3525,1.3526,1.3526,0,1.3316,1.3331,1.3349,1.3359,1.3368,1.3385,1.3395,1.3402,1.3413,1.3429,1.344,1.3457,1.3471,1.3498,1.3507,1.3522,1.3522,1.3535,1.3524,1.3522,1.352,1.3519,1.3519,1.3536,1.3536,1.3537,1.3537,0,1.3348,1.3351,1.3367,1.3383,1.3396,1.341,1.3423,1.3431,1.3439,1.3451,1.3468,1.3479,1.35,1.3516,1.3532,1.354,1.3539,1.354,1.3543,1.3542,1.3537,1.3538,1.3503,1.3539,1.3539,1.3539,1.3539,1.3538,1.3368,1.3381,1.3395,1.3412,1.3423,1.3435,1.3447,1.3455,1.347,1.3488,1.3491,1.3509,1.3521,1.3542,1.355,1.3564,1.356,1.3566,1.3567,1.3568,1.3568,1.3536,1.3567,1.3567,1.3567,1.3567,1.3567,0,1.3398,1.3407,1.3423,1.3441,1.3454,1.3453,1.3467,1.3477,1.3493,1.3505,1.3519,1.3538,1.3553,1.3563,1.3578,1.3587,1.3587,1.3591,1.3589,1.3591,1.357,1.3565,1.359,1.359,1.359,1.359,1.359,1.359,1.3415,1.3437,1.3441,1.3467,1.3476,1.3493,1.3501,1.3512,1.3521,1.3542,1.3555,1.3562,1.3572,1.3588,1.3602,1.3604,1.3609,1.3612,1.3614,1.3595,1.3592,1.359,1.3585,1.3614,1.3614,1.3633,1.3634,1.3634]},{"header":{"parameterUnit":"m.s-1","parameterCategory":1,"la1":30.2991,"la2":30.254,"lo1":-89.0895,"lo2":-89.0444,"dy":0.0017,"dx":0.0017,"nx":28,"ny":28,"refTime":"2023-08-02T03:00:00:Z","depth":0,"parameterNumber":3,"parameterNumberName":"V-component_of_WINDS"},"data":[0,0,0,0,0,0,0,0,0,0,0,0,0,0,0,0,0,0,0,0,0,0,0,0,0,0,0,0,0,0,0,0,0,0,0,0,0,0,0,0,0,0,0,0,0,0,0,0,0,0,0,0,0,0,0,0,0,0,5.203,5.203,0,5.2015,5.2015,5.2015,5.1932,5.193,5.1928,5.1926,5.1912,5.1914,5.1915,0,0,0,0,0,0,0,0,0,0,0,0,0,5.1987,5.1988,5.203,5.2029,5.2029,5.2015,5.2015,5.2015,5.1932,5.193,5.1927,5.1925,5.1912,5.1913,5.1915,0,0,0,0,0,0,0,0,0,0,0,0,0,5.1992,5.1988,5.203,5.1986,5.1982,5.2015,5.2015,5.2015,5.1933,5.193,5.1927,5.1924,5.1911,5.1913,5.1915,5.1989,0,0,5.1922,5.1923,0,0,0,0,0,0,0,0,5.1992,5.1994,5.1993,5.199,5.1985,5.1972,5.1994,5.2006,5.1934,5.1952,5.1926,5.1923,5.1935,5.1935,5.1938,5.1988,5.1987,5.1922,5.1924,5.1925,5.1925,0,0,0,0,0,0,0,5.1992,5.1994,5.2024,5.1993,5.1988,5.1968,5.1965,5.1996,5.196,5.195,5.1944,5.1943,5.1932,5.1937,5.1938,5.1987,5.1922,5.1924,5.1926,5.1926,5.2094,5.2097,0,0,0,0,0,0,5.1997,5.1994,5.2024,5.2023,5.1981,5.1971,5.1968,5.1979,5.1959,5.1954,5.1946,5.1939,5.1934,5.1935,5.1937,5.2019,5.1925,5.1927,5.1928,5.2091,5.2095,5.2098,0,0,0,0,0,0,5.1997,5.2001,5.2025,5.2007,5.2009,5.1975,5.1988,5.1981,5.1985,5.1956,5.195,5.1957,5.1932,5.1934,5.1976,5.2018,5.1928,5.193,5.2087,5.2092,5.2097,5.2186,0,0,0,0,0,0,5.1996,5.2001,5.2029,5.2008,5.201,5.2064,5.1991,5.1983,5.1989,5.1981,5.1965,5.196,5.193,5.1973,5.1978,5.2019,5.1931,5.2083,5.209,5.2095,5.2179,5.2193,5.2206,0,0,0,0,0,5.1995,5.2055,5.203,5.2034,5.2043,5.2067,5.2068,5.2032,5.1993,5.202,5.2001,5.196,5.2013,5.1978,5.1983,5.2025,5.2081,5.2088,5.2095,5.2174,5.2191,5.2205,0,0,0,0,0,0,5.2082,5.2052,5.2024,5.208,5.2076,5.2053,5.2086,5.2051,5.2059,5.2051,5.2006,5.2004,5.2052,5.2043,5.2005,5.2094,5.204,5.2048,5.2098,5.2114,5.2127,5.2127,5.1933,0,0,0,0,0,5.2107,5.2128,5.2101,5.2153,5.2153,5.212,5.2129,5.2101,5.2096,5.2095,5.2079,5.2076,5.2091,5.2103,5.2116,5.2179,5.2173,5.221,5.2223,5.2234,5.2241,5.2272,5.2288,5.2121,5.2121,5.2121,0,0,5.216,5.2147,5.2163,5.217,5.2164,5.2187,5.2119,5.2147,5.2163,5.2099,5.2137,5.2126,5.2119,5.2172,5.2194,5.2166,5.2286,5.2243,5.2252,5.2253,5.2281,5.2297,5.2311,5.2126,5.2125,5.2125,0,0,5.2268,5.2261,5.2302,5.2297,5.2289,5.2267,5.2277,5.2259,5.2248,5.2286,5.2238,5.2257,5.2285,5.2282,5.2284,5.2391,5.2353,5.2396,5.2464,5.2494,5.2507,5.2519,5.2555,5.2568,5.2404,5.2404,5.2404,0,5.2335,5.2367,5.2327,5.2357,5.2361,5.2304,5.2345,5.2343,5.234,5.2344,5.2313,5.2346,5.2338,5.2388,5.2414,5.2418,5.2427,5.2397,5.2509,5.252,5.253,5.2563,5.2577,5.2409,5.2409,5.2408,5.2408,0,5.2448,5.2471,5.2506,5.2503,5.2511,5.2547,5.2513,5.2526,5.2498,5.2479,5.2517,5.2506,5.2515,5.2525,5.2499,5.2571,5.2553,5.2517,5.246,5.2551,5.2582,5.2595,5.2417,5.2415,5.2413,5.2412,0,0,5.2609,5.2584,5.2597,5.2594,5.2581,5.2598,5.2631,5.2639,5.265,5.265,5.2676,5.2701,5.2666,5.2669,5.2641,5.2669,5.2751,5.2628,5.2627,5.2649,5.2828,5.2855,5.287,5.2727,5.2729,5.2731,5.2828,0,5.271,5.2763,5.2729,5.2788,5.2807,5.2754,5.2782,5.2777,5.2761,5.2775,5.2757,5.2775,5.2729,5.273,5.2755,5.2736,5.2786,5.2729,5.2749,5.275,5.275,5.2887,5.2915,5.3007,5.284,5.2842,5.2844,0,5.2835,5.2839,5.2899,5.2881,5.2888,5.2914,5.2918,5.2933,5.2926,5.2912,5.2915,5.2881,5.2911,5.2858,5.2899,5.2861,5.2867,5.286,5.2862,5.2861,5.2801,5.2887,5.3035,5.3048,5.2863,5.2861,5.286,0,5.2943,5.2964,5.3002,5.3002,5.2982,5.3001,5.2994,5.2984,5.2991,5.2995,5.2998,5.3007,5.3011,5.3018,5.2986,5.2951,5.3031,5.2975,5.3019,5.302,5.3037,5.3036,5.3186,5.3045,5.3045,5.3045,5.3045,0,5.3058,5.3096,5.305,5.3073,5.3115,5.3075,5.3118,5.3105,5.3097,5.3117,5.3072,5.3092,5.305,5.3066,5.3042,5.3079,5.3082,5.307,5.3063,5.3073,5.3074,5.3075,5.3067,5.3049,5.3048,5.3047,5.3046,0,5.3184,5.3155,5.3193,5.3171,5.3166,5.3197,5.3178,5.3199,5.318,5.3206,5.3209,5.3179,5.3195,5.3165,5.3178,5.3162,5.3212,5.3197,5.3214,5.3208,5.3253,5.3249,5.3408,5.3426,5.3276,5.3278,5.3279,0,5.3258,5.3286,5.3267,5.3276,5.3271,5.3288,5.3294,5.3257,5.3265,5.3259,5.328,5.3292,5.33,5.3328,5.3307,5.3316,5.3299,5.3354,5.33,5.3308,5.3297,5.3294,5.3296,5.3364,5.3366,5.3368,5.3369,0,5.3392,5.3376,5.3386,5.3391,5.3399,5.3402,5.3401,5.3412,5.3372,5.3384,5.3399,5.3405,5.3417,5.3429,5.3433,5.3426,5.3391,5.3386,5.3397,5.3406,5.3414,5.3408,5.3242,5.3382,5.3381,5.338,5.3379,5.3379,5.3492,5.3514,5.3503,5.3516,5.3511,5.3512,5.3529,5.3512,5.3524,5.353,5.3508,5.3528,5.352,5.3522,5.3518,5.3533,5.3509,5.3524,5.3528,5.3531,5.3538,5.3414,5.3535,5.3534,5.3534,5.3533,5.3533,0,5.3621,5.3611,5.3624,5.3623,5.3633,5.3599,5.3597,5.3607,5.3625,5.3621,5.3628,5.3646,5.3657,5.3638,5.3646,5.3662,5.3646,5.3665,5.3662,5.3661,5.356,5.3549,5.3678,5.3678,5.3678,5.3678,5.3678,5.3678,5.3689,5.3723,5.3706,5.3738,5.3728,5.3746,5.3748,5.3748,5.3743,5.3764,5.3773,5.376,5.375,5.3757,5.3766,5.376,5.3764,5.3789,5.3777,5.3683,5.3668,5.3655,5.3644,5.3791,5.3791,5.3876,5.3877,5.3878]}]]